GBOYI EGCM-EGCM

Flight info

Callsign GBOYI
Flight time 0h 5m
Altitude 3000
Route UPTON DCT KIM DCT VUSFO
Aircraft PA24/L-SDGRY/S

Departure

Time 2026-04-25 16:10
Airport Leeds East Airport (EGCM)

Arrival

Time 2026-04-25 16:16
Airport Leeds East Airport (EGCM)
Time Latitude Longitude Altitude Speed Heading
2026-04-25 16:01 53.83399 -1.20235 35 ft 0 kts 167°
2026-04-25 16:03 53.83400 -1.20235 35 ft 0 kts 167°
2026-04-25 16:08 53.83388 -1.20217 33 ft 8 kts 91°
2026-04-25 16:08 53.83431 -1.20202 33 ft 16 kts 287°
2026-04-25 16:08 53.83381 -1.20422 34 ft 24 kts 235°
2026-04-25 16:09 53.83250 -1.20589 34 ft 24 kts 207°
2026-04-25 16:09 53.83088 -1.20662 33 ft 20 kts 180°
2026-04-25 16:09 53.83022 -1.20561 33 ft 14 kts 56°
2026-04-25 16:09 53.83130 -1.20307 35 ft 50 kts 55°
2026-04-25 16:10 53.83408 -1.19646 103 ft 80 kts 58°
2026-04-25 16:10 53.83744 -1.18845 279 ft 86 kts 57°
2026-04-25 16:10 53.84102 -1.17995 463 ft 91 kts 56°
2026-04-25 16:10 53.84479 -1.17128 725 ft 91 kts 56°
2026-04-25 16:11 53.84837 -1.16211 947 ft 95 kts 60°
2026-04-25 16:11 53.85324 -1.15491 1096 ft 103 kts 11°
2026-04-25 16:11 53.85904 -1.16199 1213 ft 112 kts 291°
2026-04-25 16:11 53.86155 -1.17388 1338 ft 99 kts 293°
2026-04-25 16:12 53.86338 -1.18484 1345 ft 95 kts 289°
2026-04-25 16:12 53.86454 -1.19586 1326 ft 98 kts 281°
2026-04-25 16:12 53.86336 -1.20686 1316 ft 99 kts 239°
2026-04-25 16:12 53.86216 -1.21004 1353 ft 99 kts 234°
2026-04-25 16:13 53.85582 -1.22125 1402 ft 99 kts 214°
2026-04-25 16:13 53.85107 -1.22915 1476 ft 94 kts 219°
2026-04-25 16:13 53.84590 -1.23695 1499 ft 101 kts 217°
2026-04-25 16:13 53.84054 -1.24393 1553 ft 93 kts 207°
2026-04-25 16:14 53.83215 -1.24495 1091 ft 89 kts 168°
2026-04-25 16:14 53.82795 -1.24411 817 ft 88 kts 160°
2026-04-25 16:14 53.82400 -1.23888 623 ft 65 kts 107°
2026-04-25 16:14 53.82232 -1.23135 404 ft 70 kts 91°
2026-04-25 16:15 53.82238 -1.22388 318 ft 56 kts 59°
2026-04-25 16:15 53.82498 -1.21825 232 ft 62 kts 65°
2026-04-25 16:15 53.82717 -1.21285 180 ft 50 kts 53°
2026-04-25 16:15 53.82916 -1.20815 120 ft 53 kts 54°
2026-04-25 16:16 53.83137 -1.20300 53 ft 55 kts 57°
2026-04-25 16:16 53.83325 -1.19838 34 ft 37 kts 55°
2026-04-25 16:16 53.83445 -1.19556 32 ft 24 kts 54°
2026-04-25 16:16 53.83560 -1.19286 34 ft 47 kts 54°
2026-04-25 16:17 53.83814 -1.18701 137 ft 71 kts 57°
2026-04-25 16:17 53.84124 -1.18020 359 ft 76 kts 54°
2026-04-25 16:17 53.84476 -1.17304 595 ft 85 kts 52°
2026-04-25 16:17 53.84874 -1.16525 841 ft 89 kts 52°
2026-04-25 16:18 53.85423 -1.16150 1055 ft 100 kts 353°
2026-04-25 16:18 53.85779 -1.16707 1143 ft 109 kts 307°
2026-04-25 16:18 53.86266 -1.18230 1384 ft 110 kts 298°
2026-04-25 16:18 53.86517 -1.19184 1437 ft 66 kts 302°
2026-04-25 16:19 53.86542 -1.19994 1068 ft 72 kts 231°
2026-04-25 16:19 53.86115 -1.20545 796 ft 82 kts 202°
2026-04-25 16:19 53.85575 -1.20944 487 ft 90 kts 190°
2026-04-25 16:20 53.84753 -1.20563 85 ft 49 kts 147°
2026-04-25 16:20 53.84548 -1.20405 32 ft 3 kts 168°